DW1024 Weather Reports


Display with metric or nautical units.
time (UTC)temp
F
wind
direction
speed
MPH
gust
MPH
rain 1hr
in
rain 24hr
in
rain mn
in
humidity
%
barometer
mb
20260507050505 48 192 1.0 5.0 0.00 0.33 0.00 89 1012.9
20260507045001 48 222 0.0 3.0 0.00 0.33 0.00 89 1012.7
20260507043503 48 234 1.0 3.0 0.00 0.33 0.00 89 1012.6
20260507042002 48 217 0.0 3.0 0.00 0.33 0.00 88 1012.3
20260507040503 48 217 0.0 1.0 0.00 0.33 0.00 87 1012.3
20260507035001 48 217 0.0 1.0 0.00 0.33 0.00 87 1012.2
20260507033507 48 217 0.0 1.0 0.00 0.33 0.00 87 1012.2
20260507032006 48 217 0.0 1.0 0.00 0.33 0.00 87 1012.3
20260507030503 48 217 0.0 2.0 0.00 0.33 0.00 87 1012.4
20260507025005 48 251 0.0 2.0 0.00 0.33 0.00 86 1012.2
20260507023458 48 246 1.0 4.0 0.00 0.33 0.00 87 1011.9
20260507021958 48 205 2.0 4.0 0.00 0.33 0.00 87 1011.9
20260507020457 48 214 2.0 4.0 0.00 0.33 0.00 87 1011.8
20260507014955 48 218 1.0 6.0 0.00 0.33 0.00 87 1011.5
20260507013455 48 178 2.0 5.0 0.00 0.33 0.00 87 1011.5
20260507004955 49 239 2.0 4.0 0.00 0.33 0.00 87 1011.6
20260507003456 49 279 1.0 5.0 0.00 0.33 0.00 86 1011.5
20260507001958 49 227 1.0 5.0 0.00 0.33 0.00 86 1011.5
20260507000450 50 203 1.0 5.0 0.00 0.33 0.00 86 1011.7
20260506233449 50 255 2.0 4.0 0.00 0.33 0.00 86 1011.6
20260506231947 50 242 2.0 6.0 0.00 0.33 0.00 86 1011.5
20260506224947 50 284 2.0 7.0 0.00 0.33 0.00 86 1011.5
20260506223448 50 234 2.0 5.0 0.00 0.33 0.00 87 1011.5
20260506221948 50 284 1.0 6.0 0.00 0.33 0.00 87 1011.5
20260506220448 50 244 2.0 6.0 0.00 0.33 0.00 86 1011.4
20260506214943 50 252 2.0 5.0 0.00 0.33 0.33 86 1011.1
20260506213444 50 278 2.0 10.0 0.00 0.33 0.33 87 1011.1
20260506211945 50 251 3.0 10.0 0.00 0.35 0.33 88 1011.1
20260506210450 50 238 3.0 7.0 0.00 0.37 0.33 88 1011.0
20260506204946 50 250 2.0 10.0 0.00 0.41 0.33 87 1010.8
20260506203443 50 217 1.0 6.0 0.00 0.45 0.33 87 1010.6
20260506201944 51 194 2.0 6.0 0.00 0.46 0.33 87 1010.6
20260506194948 51 265 2.0 7.0 0.00 0.47 0.33 86 1010.4
20260506191945 51 217 3.0 8.0 0.00 0.50 0.33 86 1010.3
20260506190446 51 181 3.0 9.0 0.00 0.50 0.33 86 1010.1
20260506183447 51 201 3.0 9.0 0.00 0.50 0.33 85 1009.1
20260506181945 51 192 4.0 13.0 0.00 0.50 0.33 86 1008.9
20260506180446 51 254 4.0 15.0 0.00 0.50 0.33 87 1008.8
20260506174947 52 269 4.0 11.0 0.00 0.50 0.33 88 1008.6
20260506171941 53 320 5.0 18.0 0.00 0.50 0.33 90 1008.1
20260506170439 56 261 2.0 7.0 0.00 0.50 0.33 94 1007.6
20260506164940 55 261 2.0 6.0 0.00 0.50 0.33 93 1006.9
20260506161941 55 12 0.0 2.0 0.01 0.50 0.33 93 1006.4
20260506154941 55 222 1.0 4.0 0.24 0.50 0.33 92 1006.4
20260506153441 54 150 2.0 6.0 0.33 0.50 0.33 91 1005.9
20260506151941 55 182 1.0 5.0 0.32 0.49 0.31 88 1006.4
20260506150440 56 254 4.0 15.0 0.24 0.41 0.23 83 1007.2
20260506144942 60 304 8.0 23.0 0.08 0.27 0.07 74 1006.8
20260506141940 64 285 2.0 6.0 0.00 0.19 0.00 64 1004.6
20260506140441 65 267 2.0 7.0 0.00 0.19 0.00 62 1004.9
20260506133440 68 65 4.0 11.0 0.00 0.19 0.00 59 1005.0
20260506131941 67 96 3.0 9.0 0.00 0.19 0.00 64 1005.0
20260506124941 66 119 3.0 9.0 0.00 0.19 0.00 63 1005.2
20260506123437 65 80 4.0 10.0 0.00 0.19 0.00 65 1005.5
20260506121936 65 55 2.0 6.0 0.00 0.19 0.00 65 1005.6
20260506114937 64 28 3.0 8.0 0.00 0.19 0.00 65 1006.0
20260506113436 64 71 2.0 7.0 0.00 0.19 0.00 65 1006.0
20260506110437 63 51 2.0 8.0 0.00 0.19 0.00 64 1006.4
20260506104937 63 32 1.0 9.0 0.00 0.19 0.00 64 1006.7
20260506101931 63 69 2.0 6.0 0.00 0.19 0.00 63 1007.0
20260506100431 63 28 2.0 8.0 0.00 0.19 0.00 63 1007.1
20260506094931 63 30 2.0 6.0 0.00 0.19 0.00 63 1007.3
20260506093433 63 304 1.0 4.0 0.00 0.19 0.00 67 1007.2
20260506084932 62 54 1.0 5.0 0.00 0.19 0.00 68 1007.4
20260506083425 62 123 2.0 6.0 0.00 0.19 0.00 68 1007.2
20260506081925 63 38 1.0 3.0 0.00 0.19 0.00 70 1007.3
20260506080426 62 112 1.0 4.0 0.00 0.19 0.00 67 1007.5
20260506073423 60 309 0.0 3.0 0.00 0.19 0.00 73 1007.7
20260506071745 58 200 0.0 0.0 0.00 0.19 0.00 78 1008.0
20260506060413 53 200 0.0 0.0 0.00 0.19 0.00 94 1008.1